User: anonymous   Login
Location: Caltech
(34.1382°N, 118.1253°W)
Time: 23:43:07
(UTC-07:00)
Language:

Cosmos 1939 Rocket - Orbit

View from above orbital plane
View from above orbital plane
View from above satellite
View from above satellite

Ground track
Ground track

The orbit data is extracted from the following two-line orbital elements,

1 19046U 88032B   17113.90969677 -.00000021 +00000-0 +29596-5 0  9997
2 19046 097.5351 162.3935 0038244 149.7538 210.5906 15.02189160564202
Epoch (UTC): 23 April 2017 21:49:57
Eccentricity: 0.0038244
inclination: 97.5351°
perigee height: 533 km
apogee height: 586 km
right ascension of ascending node: 162.3935°
argument of perigee: 149.7538°
revolutions per day: 15.02189160
mean anomaly at epoch: 210.5906°
orbit number at epoch: 56420

The dashed part of the orbit path shows where the satellite is in the earth's shadow,  

DLR